• In Germany
  • List of Countries
  • For 7 days
  • Water Temperature
  • Satellite Maps
  • Weather Map
  • Weather Widgets
  • user-avatar
    Login

    Hourly Weather Samos

    Today, 21 May, Monday

    Time Temperature Precipitation Wind Pressure Humidity
    00:00 +21°C° 0 mm 3 mps 719 mmHg 64%
    01:00 +20°C° 0 mm 3 mps 719 mmHg 66%
    02:00 +20°C° 0 mm 3 mps 719 mmHg 68%
    03:00 +19°C° 0 mm 3 mps 719 mmHg 70%
    04:00 +19°C° 0 mm 3 mps 719 mmHg 72%
    05:00 +18°C° 0 mm 3 mps 719 mmHg 73%
    06:00 +20°C° 0 mm 3 mps 719 mmHg 66%
    07:00 +22°C° 0 mm 3 mps 719 mmHg 59%
    08:00 +25°C° 0 mm 3 mps 719 mmHg 52%
    09:00 +28°C° 0 mm 2 mps 719 mmHg 45%
    10:00 +30°C° 0 mm 2 mps 719 mmHg 38%
    11:00 +32°C° 0 mm 1 mps 719 mmHg 31%
    12:00 +32°C° 0 mm 2 mps 719 mmHg 30%
    13:00 +32°C° 0 mm 2 mps 719 mmHg 29%
    14:00 +34°C° 0 mm 3 mps 719 mmHg 28%
    15:00 +33°C° 0 mm 3 mps 719 mmHg 30%
    16:00 +31°C° 0 mm 3 mps 718 mmHg 33%
    17:00 +30°C° 0 mm 2 mps 718 mmHg 35%
    18:00 +28°C° 0 mm 2 mps 718 mmHg 41%
    19:00 +26°C° 0 mm 1 mps 718 mmHg 47%
    20:00 +24°C° 0 mm 1 mps 718 mmHg 53%
    21:00 +23°C° 0 mm 1 mps 718 mmHg 56%
    22:00 +22°C° 0 mm 1 mps 718 mmHg 58%
    23:00 +22°C° 0 mm 1 mps 719 mmHg 61%

    Tomorrow, 22 May, Tuesday

    Time Temperature Precipitation Wind Pressure Humidity
    00:00 +21°C° 0 mm 1 mps 719 mmHg 62%
    01:00 +21°C° 0 mm 1 mps 719 mmHg 64%
    02:00 +21°C° 0 mm 1 mps 719 mmHg 65%
    03:00 +20°C° 0 mm 1 mps 719 mmHg 66%
    04:00 +19°C° 0 mm 2 mps 719 mmHg 67%
    05:00 +19°C° 0 mm 2 mps 719 mmHg 68%
    06:00 +21°C° 0 mm 2 mps 719 mmHg 62%
    07:00 +24°C° 0 mm 2 mps 720 mmHg 56%
    08:00 +26°C° 0 mm 2 mps 720 mmHg 50%
    09:00 +27°C° 0 mm 2 mps 720 mmHg 46%
    10:00 +28°C° 0 mm 3 mps 721 mmHg 42%
    11:00 +29°C° 0 mm 3 mps 721 mmHg 38%
    12:00 +30°C° 0 mm 4 mps 721 mmHg 38%
    13:00 +30°C° 0 mm 5 mps 721 mmHg 38%
    14:00 +30°C° 0 mm 5 mps 721 mmHg 38%
    15:00 +30°C° 0 mm 5 mps 721 mmHg 40%
    16:00 +29°C° 0 mm 5 mps 720 mmHg 43%
    17:00 +28°C° 0 mm 5 mps 720 mmHg 45%
    18:00 +26°C° 0 mm 4 mps 720 mmHg 53%
    19:00 +23°C° 0 mm 4 mps 721 mmHg 60%
    20:00 +22°C° 0 mm 4 mps 721 mmHg 67%
    21:00 +21°C° 0 mm 4 mps 721 mmHg 70%
    22:00 +20°C° 0 mm 3 mps 721 mmHg 72%
    23:00 +20°C° 0 mm 3 mps 721 mmHg 74%

    Day after tomorrow, 23 May, Wednesday

    Time Temperature Precipitation Wind Pressure Humidity
    00:00 +19°C° 0 mm 3 mps 721 mmHg 75%
    01:00 +19°C° 0 mm 3 mps 721 mmHg 76%
    02:00 +19°C° 0 mm 3 mps 721 mmHg 77%
    03:00 +18°C° 0 mm 3 mps 721 mmHg 77%
    04:00 +18°C° 0 mm 3 mps 721 mmHg 78%
    05:00 +18°C° 0 mm 3 mps 721 mmHg 79%
    06:00 +20°C° 0 mm 3 mps 721 mmHg 72%
    07:00 +21°C° 0 mm 3 mps 721 mmHg 65%
    08:00 +24°C° 0 mm 3 mps 721 mmHg 57%
    09:00 +26°C° 0 mm 3 mps 722 mmHg 50%
    10:00 +28°C° 0 mm 3 mps 722 mmHg 43%
    11:00 +29°C° 0 mm 4 mps 722 mmHg 36%
    12:00 +30°C° 0 mm 4 mps 722 mmHg 35%
    13:00 +32°C° 0 mm 5 mps 721 mmHg 33%
    14:00 +32°C° 0 mm 5 mps 721 mmHg 31%
    15:00 +30°C° 0 mm 5 mps 721 mmHg 34%
    16:00 +30°C° 0 mm 5 mps 720 mmHg 36%
    17:00 +29°C° 0 mm 5 mps 720 mmHg 39%
    18:00 +27°C° 0 mm 5 mps 720 mmHg 45%
    19:00 +25°C° 0 mm 4 mps 720 mmHg 52%
    20:00 +22°C° 0 mm 4 mps 720 mmHg 59%
    21:00 +21°C° 0 mm 4 mps 720 mmHg 61%
    22:00 +20°C° 0 mm 3 mps 720 mmHg 63%
    23:00 +20°C° 0 mm 3 mps 720 mmHg 65%

    24 May, Thursday

    Time Temperature Precipitation Wind Pressure Humidity
    00:00 +19°C° 0 mm 3 mps 719 mmHg 67%
    01:00 +19°C° 0 mm 3 mps 719 mmHg 69%
    02:00 +18°C° 0 mm 3 mps 719 mmHg 71%
    03:00 +18°C° 0 mm 2 mps 718 mmHg 72%
    04:00 +18°C° 0 mm 2 mps 718 mmHg 73%
    05:00 +17°C° 0 mm 2 mps 718 mmHg 74%
    06:00 +19°C° 0 mm 2 mps 718 mmHg 67%
    07:00 +23°C° 0 mm 2 mps 718 mmHg 59%
    08:00 +25°C° 0 mm 2 mps 718 mmHg 51%
    09:00 +26°C° 0 mm 2 mps 718 mmHg 45%
    10:00 +28°C° 0 mm 2 mps 718 mmHg 39%
    11:00 +30°C° 0 mm 2 mps 718 mmHg 33%
    12:00 +30°C° 0 mm 3 mps 718 mmHg 33%
    13:00 +30°C° 0 mm 4 mps 717 mmHg 32%
    14:00 +32°C° 0 mm 4 mps 717 mmHg 31%
    15:00 +30°C° 0 mm 4 mps 716 mmHg 34%
    16:00 +29°C° 0 mm 4 mps 716 mmHg 36%
    17:00 +28°C° 0 mm 4 mps 716 mmHg 38%
    18:00 +26°C° 0 mm 4 mps 715 mmHg 45%
    19:00 +23°C° 0 mm 4 mps 715 mmHg 52%
    20:00 +21°C° 0 mm 4 mps 715 mmHg 59%
    21:00 +21°C° 0 mm 3 mps 715 mmHg 63%
    22:00 +20°C° 0 mm 3 mps 715 mmHg 67%
    23:00 +19°C° 0 mm 3 mps 715 mmHg 71%

    25 May, Friday

    Time Temperature Precipitation Wind Pressure Humidity
    00:00 +19°C° 0 mm 3 mps 715 mmHg 73%
    01:00 +18°C° 0 mm 3 mps 715 mmHg 75%
    02:00 +18°C° 0 mm 3 mps 714 mmHg 77%
    03:00 +18°C° 0 mm 3 mps 714 mmHg 78%
    04:00 +17°C° 0 mm 3 mps 714 mmHg 79%
    05:00 +17°C° 0 mm 3 mps 714 mmHg 80%
    06:00 +19°C° 0 mm 4 mps 714 mmHg 73%
    07:00 +20°C° 0 mm 4 mps 714 mmHg 66%
    08:00 +22°C° 0 mm 4 mps 714 mmHg 60%
    09:00 +25°C° 0 mm 4 mps 714 mmHg 54%
    10:00 +26°C° 0 mm 4 mps 714 mmHg 48%
    11:00 +28°C° 0 mm 5 mps 715 mmHg 42%
    12:00 +29°C° 0 mm 5 mps 714 mmHg 41%
    13:00 +29°C° 0 mm 6 mps 714 mmHg 39%
    14:00 +30°C° 0 mm 6 mps 714 mmHg 37%
    15:00 +29°C° 0 mm 6 mps 714 mmHg 41%
    16:00 +28°C° 0 mm 7 mps 714 mmHg 45%
    17:00 +27°C° 0 mm 7 mps 714 mmHg 49%
    18:00 +24°C° 0.2 mm 6 mps 714 mmHg 57%
    19:00 +23°C° 0.2 mm 6 mps 714 mmHg 64%
    20:00 +21°C° 0.2 mm 6 mps 714 mmHg 72%
    21:00 +20°C° 0 mm 5 mps 714 mmHg 75%
    22:00 +19°C° 0 mm 5 mps 714 mmHg 78%
    23:00 +17°C° 0 mm 5 mps 714 mmHg 81%

    26 May, Saturday

    Time Temperature Precipitation Wind Pressure Humidity
    00:00 +17°C° 0 mm 5 mps 714 mmHg 81%
    01:00 +17°C° 0 mm 5 mps 714 mmHg 81%
    02:00 +17°C° 0 mm 4 mps 714 mmHg 81%
    03:00 +16°C° 0 mm 5 mps 714 mmHg 82%
    04:00 +16°C° 0 mm 5 mps 714 mmHg 82%
    05:00 +15°C° 0 mm 5 mps 714 mmHg 83%
    06:00 +17°C° 0 mm 5 mps 715 mmHg 77%
    07:00 +19°C° 0 mm 5 mps 715 mmHg 72%
    08:00 +21°C° 0 mm 5 mps 715 mmHg 66%
    09:00 +22°C° 0 mm 5 mps 716 mmHg 60%
    10:00 +25°C° 0 mm 5 mps 716 mmHg 54%
    11:00 +27°C° 0 mm 5 mps 716 mmHg 48%
    12:00 +28°C° 0 mm 5 mps 716 mmHg 45%
    13:00 +28°C° 0 mm 5 mps 716 mmHg 42%
    14:00 +29°C° 0 mm 5 mps 716 mmHg 39%
    15:00 +28°C° 0.1 mm 6 mps 716 mmHg 44%
    16:00 +27°C° 0.1 mm 6 mps 716 mmHg 49%
    17:00 +26°C° 0.1 mm 6 mps 716 mmHg 54%
    18:00 +24°C° 0 mm 6 mps 716 mmHg 59%
    19:00 +22°C° 0 mm 6 mps 716 mmHg 64%
    20:00 +21°C° 0 mm 5 mps 716 mmHg 70%
    21:00 +20°C° 0 mm 5 mps 716 mmHg 72%
    22:00 +20°C° 0 mm 6 mps 716 mmHg 75%
    23:00 +19°C° 0 mm 6 mps 716 mmHg 78%
    Show more